Orbital Elements at Epoch 2459200.5 (2020-Dec-17.0) TDB
Reference: JPL 18 (heliocentric ecliptic J2000)
Element | Value | Uncertainty (1-sigma) | Units |
e | .2187213379301492 | 4.1521e-08 | |
a | 2.364013324637099 | 9.2424e-09 | au |
q | 1.846953167387773 | 9.8655e-08 | au |
i | 6.31339629061256 | 3.8768e-06 | deg |
node | 87.72274811714583 | 4.3235e-05 | deg |
peri | 306.5186433834999 | 4.4405e-05 | deg |
M | 190.1475147209815 | 1.1968e-05 | deg |
tp | 2459826.886965768541 (2022-Sep-04.38696577) | 4.6412e-05 | TDB |
period | 1327.618535026111 3.63 | 7.7857e-06 2.132e-08 | d yr |
n | .2711622280815171 | 1.5902e-09 | deg/d |
Q | 2.881073481886426 | 1.1264e-08 | au |
|
| | Orbit Determination Parameters
Additional Information
|